Cloud_Cover
100 100 100 100 100 100 100 100 70 100 82 100 65 98 92 100 100 63 62 38 4 0 3 50 39 35 36 57 43 100 100 100 100 100 100 100 100 100 100 100 100 100 100 100
100 100 100 92 100 100 100 100 100 100 100 100 100 70 24 87 100 18 99 5 3 4 0 55 100 100 100 100 100 94 100 100 100 100 100 100 100 100 100 100 100 100 100 100
100 100 100 96 100 96 72 99 100 100 100 100 100 99 7 40 99 70 13 6 10 15 5 42 100 100 100 100 100 100 100 100 100 100 100 100 100 100 100 100 100 100 100 100
100 100 100 92 100 100 100 100 100 100 100 100 100 95 69 94 89 100 100 88 59 92 20 92 100 100 100 100 100 100 100 100 100 100 100 100 100 100 100 100 100 100 100 100
100 100 100 100 100 100 100 100 100 100 100 100 100 96 76 11 12 14 86 78 32 5 29 80 100 100 100 100 100 100 100 100 100 100 100 100 100 100 100 100 87 96 100 100
100 100 100 100 100 100 100 76 100 100 100 100 96 13 98 100 100 98 85 48 19 8 23 26 46 42 92 100 100 100 100 100 100 100 100 100 100 100 86 18 66 100 100 100
99 100 100 100 100 100 100 58 100 100 100 100 90 100 100 100 100 100 10 73 74 6 99 100 30 5 15 50 91 87 100 100 100 100 100 95 69 52 24 42 91 99 94 91
68 57 100 100 100 100 99 63 100 100 100 100 57 97 100 100 100 100 40 95 71 7 25 73 46 66 81 36 55 100 100 100 88 42 14 6 7 5 20 10 0 19 27 20
98 100 100 100 100 100 100 88 100 100 100 100 100 100 100 100 100 82 97 100 88 15 26 78 96 100 100 100 82 10 11 5 56 49 6 41 46 5 26 47 7 7 5 7
74 100 100 100 100 100 100 100 100 100 100 100 100 100 100 100 100 100 100 100 96 91 82 97 100 100 100 100 100 22 26 81 100 48 41 50 68 73 97 28 21 5 28 96
66 100 100 100 100 100 100 100 100 98 100 100 90 87 100 100 100 100 98 63 82 99 100 100 100 100 100 100 100 100 76 100 100 100 100 85 100 100 100 100 84 86 97 97
94 100 100 96 100 100 100 100 100 100 100 100 94 90 100 100 100 82 94 93 97 100 100 100 100 100 82 54 95 100 98 100 100 100 100 100 92 93 100 100 100 100 100 100
21 93 94 71 100 100 100 100 100 100 100 100 100 100 100 96 74 75 100 100 100 100 100 100 100 100 100 100 100 100 100 100 100 100 100 100 100 100 100 100 100 100 100 100
23 60 96 86 100 100 100 100 100 100 100 100 100 100 100 100 98 100 100 100 100 100 100 98 95 100 100 100 100 100 100 100 100 100 100 100 100 99 100 100 100 100 100 100
12 100 100 100 100 100 100 100 100 100 100 100 100 100 100 100 100 100 100 100 100 100 100 100 100 100 100 100 100 100 100 100 100 100 100 100 100 100 100 100 100 100 100 100
65 100 100 100 100 100 100 100 100 100 100 100 100 100 100 100 100 100 100 100 100 100 100 100 100 100 100 100 100 100 100 100 100 100 100 100 100 100 100 100 100 100 100 100
7 100 100 100 100 100 100 100 100 100 100 100 100 100 100 100 100 100 100 100 100 100 100 100 100 100 100 100 100 100 100 100 100 100 100 100 100 100 100 100 100 100 100 100
84 66 78 99 100 100 100 100 100 100 100 100 100 100 100 100 100 100 100 100 100 100 100 100 100 100 100 100 100 100 100 100 100 100 100 100 100 100 100 100 100 100 100 100
98 100 100 100 100 100 100 100 100 100 100 100 100 100 100 100 100 100 100 100 100 100 100 100 100 100 100 100 100 100 98 98 100 100 100 100 100 100 100 100 100 100 100 100
100 100 100 100 100 100 100 100 100 100 100 100 100 100 100 100 100 100 100 100 100 100 100 100 100 100 100 100 100 100 99 95 95 99 100 100 100 100 100 100 100 100 100 100
100 100 100 100 100 100 100 100 100 100 100 100 100 100 100 100 100 100 100 100 100 100 100 100 100 100 100 100 100 100 100 100 97 99 100 100 100 100 100 100 100 100 100 99
100 100 100 100 100 100 100 100 100 100 100 100 100 100 100 100 100 100 100 100 100 100 100 100 100 100 90 86 81 100 99 98 100 100 100 98 86 91 93 92 87 80 86 85
100 100 100 100 100 100 100 100 100 100 100 100 100 100 100 100 100 100 100 100 100 100 100 100 100 100 94 86 95 97 99 82 89 89 95 100 95 80 73 86 84 83 99 100
100 100 100 100 100 100 100 100 100 100 100 100 100 100 100 100 100 100 100 100 100 100 100 100 98 72 58 60 64 81 92 99 100 100 72 87 83 78 100 99 77 94 99 97
100 100 100 100 100 100 100 100 100 100 100 100 100 100 100 100 100 100 100 100 100 100 100 91 93 93 88 82 90 97 100 98 99 94 86 99 100 100 100 99 96 82 74 74
100 100 100 100 100 100 100 100 100 100 100 100 100 100 100 100 100 100 100 100 100 100 100 100 92 85 88 96 82 73 100 97 74 82 92 92 100 100 99 61 50 58 81 100
100 100 100 100 100 100 100 100 100 100 100 100 100 100 100 100 100 100 100 100 91 46 19 66 78 47 18 44 45 98 87 75 22 14 74 100 100 100 99 96 99 100 58 100